Probability
0 0 0 0 0 0 0 0 1 0 0 0 0 0 0 0 0 0 1 2 2 1 0 0 0 0 0 1 2 3 3 3 2 1 1 1 2 2 3 2 1 0 1
0 0 0 0 0 0 0 1 1 1 0 0 0 0 0 0 0 0 1 2 2 1 0 0 0 0 1 1 3 3 3 3 2 1 0 0 1 1 2 2 1 1 2
0 0 0 0 1 1 0 1 2 2 1 0 0 0 0 0 0 0 1 2 1 0 0 0 0 1 2 3 3 4 4 4 3 2 1 0 0 0 1 1 1 2 3
0 0 0 1 2 2 2 3 3 3 2 1 1 1 0 0 0 1 2 2 1 0 0 0 0 1 2 3 4 5 6 5 5 3 1 0 0 0 1 1 1 3 3
0 0 0 2 4 4 4 5 5 4 3 3 3 2 1 0 0 1 1 1 0 0 0 0 0 0 1 3 4 6 6 6 5 4 2 1 2 2 2 2 3 3 3
1 1 1 3 5 5 5 5 4 3 3 3 3 2 1 1 0 0 0 0 0 0 0 0 0 0 1 2 4 6 6 6 6 4 3 3 4 4 4 3 3 3 3
2 2 3 3 4 4 3 2 1 1 1 3 2 2 2 1 0 0 0 0 0 0 0 0 0 0 0 1 3 6 6 6 6 5 5 5 5 6 5 4 3 3 3
3 3 3 3 3 2 1 0 0 0 1 2 2 1 1 1 0 0 0 0 0 0 0 0 0 0 0 1 3 5 6 6 6 6 6 6 6 6 6 4 3 3 3
1 2 2 2 2 2 1 0 1 1 2 3 2 1 0 0 0 0 0 0 0 0 0 0 0 0 0 1 2 5 6 6 6 6 6 6 6 6 5 4 3 3 3
0 1 1 1 1 1 1 1 2 3 3 3 2 0 0 0 0 0 0 0 0 0 0 0 0 0 1 1 3 5 6 6 6 6 6 6 6 6 4 3 3 3 3
1 0 0 0 0 1 1 1 2 2 2 2 1 0 0 0 0 0 0 0 0 0 0 0 0 0 0 1 3 4 5 6 6 6 6 6 6 6 4 3 3 3 3
2 1 1 0 0 0 0 0 1 1 1 1 0 0 0 0 0 0 0 0 0 0 0 0 0 0 0 1 2 3 4 4 5 6 5 5 5 5 4 3 3 3 3
3 3 2 1 1 0 0 0 0 0 0 0 0 0 0 0 0 0 0 0 0 0 0 0 0 0 0 1 3 3 3 3 4 4 4 3 3 3 3 3 3 3 3
4 3 3 3 2 1 0 0 0 1 1 0 0 0 0 0 0 0 0 0 0 0 0 0 0 0 0 1 2 3 3 3 3 3 3 2 1 1 1 2 2 2 2
4 4 4 4 4 3 2 1 1 1 2 1 0 0 0 0 0 0 0 0 0 0 0 0 0 0 0 1 1 3 3 3 3 4 4 2 1 0 0 1 1 2 2
3 3 5 6 6 6 5 3 2 1 1 1 0 0 0 0 0 0 0 0 0 0 1 1 1 0 0 0 1 2 2 2 2 3 2 1 0 0 0 0 1 2 2
1 3 5 7 7 7 6 4 2 1 1 1 0 0 0 0 0 0 0 0 0 1 1 1 1 0 0 0 0 1 1 1 1 1 1 0 0 0 0 0 1 1 1
2 4 6 6 7 6 5 4 3 2 2 2 1 1 1 0 0 1 1 1 2 2 1 1 0 0 0 0 0 0 0 0 0 0 0 0 0 0 0 0 0 0 0
4 6 6 6 6 6 5 3 2 2 2 2 2 2 2 1 0 1 1 2 3 2 1 0 0 0 0 0 0 0 1 0 0 0 0 0 0 0 0 0 0 0 0
6 6 6 6 6 6 4 3 1 0 1 1 2 2 2 1 0 0 2 3 3 1 0 0 0 0 0 0 0 0 0 0 0 0 0 0 0 1 1 1 1 1 1
6 6 6 6 5 4 3 1 0 0 0 0 1 1 1 0 0 0 1 2 2 1 0 0 0 0 0 0 0 0 1 1 1 0 0 0 0 1 2 2 2 2 2
6 5 4 4 4 3 3 1 0 0 0 0 0 0 0 0 0 0 0 1 2 2 0 0 0 0 0 0 0 0 2 2 2 1 1 0 0 1 2 2 1 1 1
6 5 4 4 4 4 4 2 1 0 0 0 0 0 0 0 0 0 0 1 1 1 0 0 0 0 0 0 0 0 1 1 1 2 2 1 1 2 2 1 0 0 1
6 5 5 6 6 6 6 4 2 0 0 0 0 0 0 0 0 0 0 0 0 0 0 0 0 0 0 0 0 0 0 0 0 1 2 3 3 3 2 1 0 0 1
4 5 7 10 10 9 8 7 4 1 1 1 1 1 0 0 0 0 0 0 0 0 0 0 0 0 0 0 0 0 0 1 0 1 2 3 3 3 3 2 0 0 0
3 5 8 12 13 12 10 7 5 3 2 2 2 2 1 0 0 0 0 0 0 0 0 0 0 0 0 0 0 0 0 1 0 0 1 3 3 3 3 1 0 0 0
Wind_Speed
4 6 8 7 6 7 7 8 9 10 10 11 11 11 12 13 13 13 13 13 13 13 13 12 12 12 12 12 12 12 11 11 11 11 11 12 12 11 11 11 10 10 13
4 7 9 7 6 7 8 8 9 10 11 11 11 11 12 12 13 13 13 13 13 13 12 12 11 11 11 11 11 11 11 10 10 10 11 12 11 10 9 7 5 9 12
5 7 8 7 7 7 8 8 9 10 10 11 11 11 11 12 12 13 12 12 12 12 12 12 11 11 11 11 11 10 10 9 9 9 9 8 11 10 9 8 9 11 11
6 6 7 8 8 8 8 8 9 10 11 11 11 11 11 11 12 12 12 12 12 12 12 11 11 11 11 10 10 9 9 9 8 8 6 6 8 11 9 9 10 10 10
6 6 8 7 8 8 8 9 10 10 10 10 11 10 11 11 11 11 11 11 11 11 11 11 11 10 10 9 9 9 8 7 7 7 5 5 6 10 9 9 9 9 9
6 6 9 6 7 8 9 9 10 10 9 10 10 10 11 11 11 11 11 11 11 10 10 10 10 9 9 8 8 7 7 7 8 5 5 5 7 9 8 8 8 9 9
7 7 8 8 8 8 8 9 9 9 9 10 10 10 10 10 11 10 10 10 10 9 9 9 9 8 8 7 6 6 5 5 5 4 4 5 7 8 8 8 8 8 9
7 7 8 8 8 8 8 8 9 9 9 9 10 10 10 10 10 10 9 9 9 9 8 8 7 7 6 6 5 5 4 6 5 4 4 5 8 7 7 8 7 7 9
6 6 7 7 8 8 8 8 9 9 9 9 9 10 10 10 9 9 9 8 8 8 7 7 6 5 5 5 4 4 4 5 4 3 4 4 8 7 7 7 7 7 7
6 6 6 6 6 6 9 10 9 9 9 9 9 9 9 9 10 10 9 8 7 7 6 5 5 4 4 4 4 5 5 7 3 3 3 7 9 7 6 6 6 7 7
6 5 5 6 6 5 7 10 10 10 9 8 9 9 6 6 7 8 9 8 7 6 5 5 4 3 3 6 6 5 6 3 3 2 2 9 8 7 6 6 6 7 7
6 5 5 5 6 5 6 6 5 6 6 4 5 5 4 4 3 5 10 7 6 5 5 4 3 4 4 4 7 7 3 2 1 2 5 9 6 6 6 6 6 6 6
6 5 6 6 5 5 4 4 3 3 4 4 5 4 3 3 4 4 4 5 5 5 4 5 4 2 1 2 1 1 0 0 0 1 6 8 6 5 6 6 6 6 6
5 5 5 6 5 4 4 4 3 3 3 3 4 3 3 2 2 3 2 2 2 2 2 2 1 2 1 1 1 1 1 0 1 1 5 8 6 5 4 4 4 5 5
5 5 5 5 5 4 3 2 3 3 3 4 3 3 2 2 2 3 2 1 1 1 2 2 2 2 1 0 0 1 2 1 2 1 4 8 6 4 4 5 5 5 5
5 5 5 5 5 4 4 3 2 2 3 2 2 3 1 2 2 1 1 1 1 1 1 1 2 2 1 1 1 2 1 1 2 1 1 6 7 4 3 3 4 4 5
5 5 5 5 5 4 4 3 3 2 3 3 3 3 2 1 2 1 1 1 1 1 2 1 1 1 1 1 1 2 2 1 2 2 1 1 3 6 5 2 3 3 4
5 6 5 4 5 5 3 2 2 2 3 2 2 3 2 2 1 1 1 1 1 1 2 2 1 1 1 1 1 1 1 2 2 1 1 1 1 1 5 4 1 1 3
5 6 5 4 5 5 4 3 3 2 2 2 2 2 2 1 1 0 1 2 0 1 1 0 2 1 1 1 2 2 1 2 2 2 2 2 2 1 1 5 3 1 1
6 6 5 5 5 4 4 3 2 2 2 2 2 2 2 1 1 0 2 1 0 1 1 2 2 1 1 1 1 3 2 2 2 2 1 2 2 2 3 2 2 4 4
7 6 6 5 5 4 3 3 3 2 2 2 2 3 1 1 2 0 1 1 0 1 1 1 1 2 2 1 1 2 2 2 2 2 2 2 2 3 3 3 3 3 3
7 7 6 6 5 5 4 2 2 1 2 2 2 2 1 1 1 1 1 1 1 1 1 1 0 0 1 1 1 1 2 3 2 2 2 2 2 2 2 3 4 3 3
8 8 6 6 6 5 4 4 3 3 2 3 2 2 1 1 1 2 1 1 1 0 2 1 1 0 0 1 1 2 1 2 2 3 3 2 2 1 1 2 3 3 3
9 8 8 7 6 6 5 4 4 3 3 2 2 2 2 1 1 1 1 1 1 1 1 1 2 0 1 0 1 1 2 2 1 1 3 3 2 1 2 1 2 3 3
10 9 9 8 7 7 6 5 4 3 3 3 2 3 1 2 1 1 1 1 1 1 1 2 1 1 1 1 0 0 0 1 2 1 1 2 2 2 1 1 1 2 2
10 10 9 9 8 7 7 6 5 4 3 2 2 2 2 2 2 2 1 1 0 1 1 1 0 1 1 2 2 1 1 1 1 1 1 1 1 2 1 1 0 1 1
Wind_Direction
58 73 96 103 103 100 99 100 102 105 106 110 111 114 117 119 119 119 122 124 124 124 122 121 121 122 122 123 123 122 124 126 129 129 130 128 128 129 132 139 151 131 125
70 81 96 101 107 107 107 105 104 104 107 109 110 112 115 119 120 120 121 123 124 123 121 119 118 119 120 122 122 123 125 127 130 134 140 139 135 136 137 139 123 116 136
82 88 99 95 106 110 109 108 109 108 108 109 108 108 113 119 121 122 121 121 123 122 121 120 119 119 119 121 122 126 127 126 131 147 173 154 136 138 139 135 128 135 142
83 83 82 90 102 105 107 108 111 111 111 111 109 108 109 115 121 122 120 120 121 121 121 120 120 120 120 121 122 123 128 129 147 180 178 134 134 134 144 144 143 144 143
80 79 85 90 96 100 105 108 112 113 112 112 110 110 110 111 115 118 118 120 119 119 120 121 121 121 122 121 122 126 133 143 172 200 135 132 127 135 149 149 149 147 142
95 87 88 92 94 100 104 105 111 116 115 113 111 111 110 111 111 109 112 113 114 116 118 120 121 121 122 124 127 133 140 162 202 165 142 150 130 140 154 154 155 151 149
87 84 91 93 99 101 105 105 110 113 114 113 113 111 111 109 109 107 107 109 112 114 116 117 118 120 124 129 132 136 151 194 216 142 150 138 117 139 156 160 161 160 159
93 92 95 99 99 103 106 108 112 114 114 113 114 114 114 113 111 110 108 108 112 113 113 116 119 123 126 131 135 143 175 234 194 152 141 121 114 147 156 159 165 167 168
91 94 95 108 112 115 112 113 116 117 115 115 116 115 116 117 118 117 114 114 112 116 117 120 122 125 126 132 141 154 181 242 235 141 140 124 127 151 164 168 170 174 175
94 93 99 100 101 119 125 121 121 119 114 114 117 116 123 131 131 130 132 120 118 117 121 127 130 130 134 144 152 165 191 228 203 147 143 117 136 159 171 175 177 182 184
99 101 105 106 105 108 112 122 132 129 123 132 127 127 149 141 134 142 112 118 122 121 123 121 126 136 158 158 155 183 212 217 165 137 109 113 146 167 179 182 185 191 191
110 112 107 103 100 104 104 117 123 124 119 117 108 123 126 116 111 107 117 121 121 127 138 129 140 184 217 156 153 190 208 188 165 149 113 127 155 178 186 183 190 196 199
119 114 112 109 114 110 107 113 107 112 113 122 114 118 111 120 124 122 130 141 150 165 158 146 184 197 117 78 105 153 52 2 196 142 114 135 157 171 182 188 196 199 205
118 112 109 114 112 100 97 107 119 120 122 118 120 128 112 105 105 104 112 114 137 134 131 155 139 99 51 77 98 76 131 219 43 54 108 130 146 163 180 183 196 209 209
128 126 119 117 115 118 113 117 112 114 116 115 110 109 100 110 103 98 82 76 105 118 151 156 122 111 95 97 24 60 34 38 42 52 117 132 147 164 186 192 199 210 211
141 134 132 138 132 131 127 118 104 112 118 110 107 100 96 97 90 93 125 110 98 120 104 128 114 129 149 91 52 64 43 49 76 40 73 135 147 159 180 201 203 206 212
146 142 143 144 136 139 136 137 128 133 124 109 104 111 124 115 103 118 106 143 101 108 119 121 112 147 166 135 104 82 85 60 67 63 47 76 136 146 151 166 207 224 225
146 148 153 149 139 140 136 129 115 96 95 103 112 116 119 111 132 162 127 91 96 131 133 138 159 136 92 89 88 61 85 98 87 75 66 77 44 108 140 137 174 243 239
154 154 153 147 141 141 136 135 126 107 94 102 103 99 105 120 127 152 69 63 172 117 106 106 93 45 96 87 105 94 77 80 86 80 65 60 67 51 74 126 136 77 298
157 157 157 155 148 150 148 144 136 126 119 112 106 92 87 104 100 47 121 86 84 104 99 80 94 89 82 105 79 79 73 79 73 74 66 81 71 62 57 44 112 104 79
165 165 168 166 154 164 161 168 155 148 134 122 116 100 103 79 85 53 66 110 61 87 55 98 121 138 124 120 141 122 121 107 78 75 57 54 77 67 56 42 36 30 97
176 175 173 174 168 175 158 160 151 137 143 120 100 102 114 101 89 128 71 111 76 96 103 96 120 327 120 162 274 225 171 147 131 84 82 84 63 70 73 66 60 44 21
181 182 180 178 174 180 171 170 155 154 160 136 133 125 106 96 99 50 66 37 53 44 91 119 154 178 189 157 328 319 322 55 109 111 86 78 71 64 72 84 79 60 46
184 180 179 176 177 176 180 180 171 164 145 129 122 114 123 106 83 83 71 67 29 51 88 183 104 249 268 206 148 328 345 11 315 119 130 117 110 90 51 28 71 76 57
185 179 176 176 177 178 183 179 189 178 156 149 140 123 138 113 94 76 80 72 80 71 61 31 74 323 287 317 334 133 133 201 270 280 119 133 123 103 91 69 54 64 65
185 181 177 175 178 178 183 184 191 181 171 158 159 151 167 141 130 106 106 86 89 69 89 72 91 134 1 352 325 332 314 305 312 311 296 181 129 113 112 88 155 113 102